PLEIADES 1A

Last updated on Tue Sep 16 2025 00:02:30 GMT+0000 (Coordinated Universal Time)

1 38012U 11076F 25258.66202848 .00000260 00000+0 65693-4 0 9997 2 38012 98.1913 332.7469 0000968 96.0525 24.6189 14.58542725731971
UTC large
Height (km)
Speed (km/s)
/
Latitude / Longitude
Inclination (degrees)
Orbital Period (minutes)
Azimuth
Elevation
Range (km)
Doppler Factor

Next 0 passes for location: London (51.5072 / 0.1276)

Sorry there are no passes over London.